This demonstration page uses our WeatherBlox Daily Observations layout. Learn more.

36.19886, -115.1175

Hourly Observations for November 15, 2018

Temp ( °F °C ) Dew Point ( °F °C ) Humidity (%) Winds ( mph kmh ) Pressure ( in mb ) Visibility ( mi km ) Precip ( " mm )
12:53 am 00:53 Clear 50 10 15 -9.4 25 25 WNW 9 15 30.27 1025 10 16.09344 0 0
1:53 am 01:53 Clear 49 9.4 15 -9.4 26 26 Calm 30.24 1024 10 16.09344 0 0
2:53 am 02:53 Clear 46 7.8 16 -8.9 30 30 NW 5 7 30.24 1024 10 16.09344 0 0
3:53 am 03:53 Clear 47 8.3 16 -8.9 29 29 NNW 3 6 30.24 1024 10 16.09344 0 0
4:53 am 04:53 Clear 45 7.2 19 -7.2 35 35 NW 7 11 30.24 1024 10 16.09344 0 0
5:53 am 05:53 Clear 44 6.7 17 -8.3 34 34 NW 5 7 30.27 1025 10 16.09344 0 0
6:53 am 06:53 Sunny 46 7.8 20 -6.7 35 35 Calm 30.27 1025 10 16.09344 0 0
7:53 am 07:53 Sunny 51 10.6 19 -7.2 28 28 Calm 30.27 1025 10 16.09344 0 0
8:53 am 08:53 Sunny 55 12.8 21 -6.1 26 26 ESE 3 6 30.27 1025 10 16.09344 0 0
9:53 am 09:53 Sunny 60 15.6 18 -7.8 19 19 Calm 30.27 1025 10 16.09344 0 0
10:53 am 10:53 Sunny 63 17.2 17 -8.3 17 17 Calm 30.24 1024 10 16.09344 0 0
11:53 am 11:53 Sunny 65 18.3 18 -7.8 16 16 Calm 30.18 1022 10 16.09344 0 0
12:53 pm 12:53 Sunny 67 19.4 18 -7.8 15 15 SSE 6 9 30.15 1021 10 16.09344 0 0
1:53 pm 13:53 Sunny 68 20 18 -7.8 15 15 Calm 30.12 1020 10 16.09344 0 0
2:53 pm 14:53 Sunny 69 20.6 18 -7.8 14 14 Calm 30.12 1020 10 16.09344 0 0
3:53 pm 15:53 Sunny 68 20 18 -7.8 15 15 Calm 30.12 1020 10 16.09344 0 0
4:53 pm 16:53 Clear 66 18.9 20 -6.7 17 17 Calm 30.09 1019 10 16.09344 0 0
5:53 pm 17:53 Clear 60 15.6 22 -5.6 23 23 W 3 6 30.12 1020 10 16.09344 0 0
6:53 pm 18:53 Clear 56 13.3 23 -5 28 28 NW 5 7 30.12 1020 10 16.09344 0 0
7:53 pm 19:53 Clear 54 12.2 22 -5.6 29 29 NW 6 9 30.12 1020 10 16.09344 0 0
8:53 pm 20:53 Clear 52 11.1 23 -5 32 32 NNW 5 7 30.12 1020 10 16.09344 0 0
9:53 pm 21:53 Clear 50 10 23 -5 35 35 NW 3 6 30.12 1020 10 16.09344 0 0
10:53 pm 22:53 Clear 50 10 24 -4.4 36 36 NW 6 9 30.09 1019 10 16.09344 0 0
11:53 pm 23:53 Clear 49 9.4 23 -5 36 36 NW 3 6 30.09 1019 10 16.09344 0 0

Powered by AerisWeather